Wind_Speed
27 28 30 30 29 26 23 21 22 24 25 26 28 30 31 34 35 31 32 36 37 39 42 42 44 47 47 46 44 39 38 40 40 37 34 32 31 29 29 30 32 33 34 32 30 28 28 29 30 29 27 26 28 29 31 33 34 33 32 32 33 32 32 33 33 33 33 33 32 32 31 31 30 30 30 30 30 31 32 33 35 36 38 39 40 41
30 32 32 28 26 24 22 21 23 25 26 27 28 30 32 34 35 32 32 37 37 39 43 44 46 50 51 48 46 44 41 35 29 27 26 24 21 22 25 29 33 34 32 29 27 27 27 27 27 27 27 28 29 30 32 35 35 34 33 33 32 32 32 32 32 32 33 32 32 31 31 31 31 31 31 31 31 32 34 34 36 37 38 39 40 41
33 35 31 25 24 23 22 23 25 26 27 28 29 31 33 33 35 35 34 37 38 39 43 45 49 54 54 50 48 44 34 21 15 19 21 19 19 23 26 28 30 31 29 27 27 26 25 25 26 27 28 28 29 33 36 37 36 35 33 32 32 32 31 31 31 32 32 32 31 31 31 31 32 32 32 33 33 33 35 36 37 38 39 40 40 41
35 34 28 23 23 23 24 25 26 27 29 29 29 32 34 34 34 36 37 38 39 40 42 45 51 59 55 49 43 30 20 16 16 19 20 20 23 25 26 26 27 28 28 28 26 23 23 24 26 26 26 27 30 34 36 36 36 35 33 32 33 32 32 31 31 31 31 31 31 31 32 32 32 33 33 33 34 34 36 37 38 39 39 40 40 41
37 33 29 25 24 25 26 28 29 31 32 31 32 33 35 35 34 37 39 38 40 39 40 42 46 55 50 36 25 15 19 31 30 26 23 22 25 25 25 25 24 27 29 28 24 23 24 25 24 23 24 27 30 31 33 34 34 33 32 32 33 33 32 31 31 31 31 30 31 32 32 32 33 34 34 34 35 35 37 38 40 40 40 40 40 40
36 32 29 27 27 28 29 30 30 31 34 34 33 33 35 35 35 38 36 33 33 31 34 32 27 34 32 20 19 22 34 42 35 30 27 23 24 23 21 21 23 28 29 26 24 25 25 22 20 22 25 27 28 29 30 32 32 32 32 32 33 32 32 31 31 31 31 31 31 32 32 33 34 34 35 35 36 37 38 39 40 41 41 40 40 40
34 30 29 28 28 28 29 30 29 30 34 35 34 34 34 35 36 35 32 29 24 21 29 28 19 24 23 20 31 39 42 40 32 32 32 24 20 18 18 21 25 28 27 25 24 26 24 19 20 24 26 26 27 28 30 32 33 32 31 32 32 31 32 32 32 31 31 31 32 32 34 34 35 35 36 36 37 37 38 39 39 40 40 40 39 40
31 28 27 28 28 28 31 32 31 30 33 35 35 34 33 35 33 31 30 28 28 31 36 36 31 30 28 33 43 44 38 34 31 32 31 27 21 16 18 23 25 26 24 23 25 27 23 20 23 26 26 27 27 28 31 33 34 34 33 33 32 31 32 32 32 32 32 33 33 34 35 36 36 36 37 37 37 38 39 39 39 39 39 39 40 40
31 30 29 30 30 32 33 34 33 32 34 36 36 34 34 34 31 30 29 28 34 34 27 31 32 24 27 41 43 35 30 29 30 29 30 32 27 19 19 21 22 23 22 24 27 27 24 22 25 27 27 28 28 28 31 33 35 36 35 34 33 32 32 33 33 33 34 34 35 36 36 37 37 37 37 38 38 39 39 38 38 38 38 39 40 41
33 34 33 33 35 35 35 35 36 35 35 36 35 33 32 31 30 29 29 30 32 23 18 28 29 16 22 34 28 24 26 25 26 30 33 32 24 19 19 19 20 21 22 26 28 26 24 24 27 28 30 30 30 30 31 33 36 37 37 35 35 35 34 35 36 36 37 37 37 37 38 38 38 38 38 38 39 39 38 37 38 38 38 40 40 41
38 38 37 36 36 35 36 37 38 37 37 36 34 32 29 30 30 29 29 26 20 14 16 26 29 20 17 17 18 23 21 19 27 33 31 22 17 20 21 20 22 22 24 27 26 25 23 25 28 30 32 32 32 33 32 33 35 37 38 37 37 37 37 37 37 38 39 39 39 39 39 39 38 39 38 38 38 38 37 37 38 39 39 40 41 41
39 40 40 39 36 35 37 38 39 39 38 36 32 30 25 20 18 18 18 14 9 7 9 16 21 23 21 15 19 25 20 26 37 30 20 20 22 24 23 23 25 24 24 25 23 23 24 26 29 30 31 31 32 33 33 33 35 36 38 38 39 39 38 38 38 39 40 40 40 40 39 39 39 39 39 38 38 37 37 38 38 40 41 41 42 42
41 42 40 37 35 35 35 37 39 39 39 37 33 27 15 7 6 7 6 5 8 12 15 18 16 20 34 39 40 39 34 34 31 17 19 31 30 24 23 23 24 22 22 23 21 22 25 27 30 31 31 33 34 35 35 34 35 37 38 39 40 40 39 39 39 41 42 41 41 40 40 40 39 39 39 38 38 37 38 39 40 41 42 42 43 44
33 37 38 37 36 36 36 38 38 38 38 36 33 26 14 4 2 5 5 4 7 13 19 19 14 18 32 42 42 34 25 22 21 21 30 34 25 21 23 22 21 22 22 22 21 23 27 29 30 31 33 37 38 37 37 36 35 36 38 40 40 40 39 39 40 41 42 42 42 41 40 40 39 39 39 38 38 39 39 40 41 42 43 44 44 45
24 27 35 34 32 35 34 33 33 34 35 32 28 24 19 14 9 6 6 4 4 14 19 10 10 18 21 27 31 23 23 31 36 36 31 25 20 20 22 21 21 22 21 21 23 25 28 30 31 32 34 39 42 40 39 38 37 37 38 39 40 40 39 39 40 41 42 43 43 42 41 41 40 39 39 39 39 40 41 41 42 43 44 45 46 46
27 33 40 34 33 37 34 32 32 29 29 29 25 22 24 28 25 15 13 16 11 14 17 12 20 40 41 42 47 40 41 43 33 28 27 24 22 20 20 21 20 20 21 22 24 27 29 30 31 32 35 40 43 42 40 39 39 38 38 39 38 38 37 38 39 40 42 43 43 42 41 40 39 39 39 39 40 41 41 42 43 43 45 46 47 47
25 33 40 33 31 33 30 31 33 29 26 24 23 27 31 31 26 19 16 22 15 9 18 21 27 46 48 44 47 39 32 27 21 26 31 26 22 20 21 20 19 20 20 21 24 27 30 31 32 33 37 42 44 43 42 40 39 40 39 40 40 38 37 36 37 39 41 42 42 42 40 39 39 39 39 40 40 41 42 43 44 44 45 46 47 48
30 33 40 36 31 30 28 27 30 33 30 27 27 29 28 21 18 17 8 8 8 6 18 27 28 37 34 25 29 26 20 22 25 29 29 23 23 25 23 22 21 21 19 20 25 30 32 33 33 35 39 44 45 44 43 41 40 41 41 42 41 40 37 35 35 37 39 41 41 40 39 38 38 39 39 40 41 42 43 43 44 45 46 47 48 49
35 32 39 42 37 33 33 31 30 33 32 33 36 32 24 13 11 16 10 5 9 5 9 24 33 40 38 30 31 32 26 25 25 25 24 23 27 28 26 25 24 22 21 22 28 32 33 33 33 36 42 45 47 46 45 43 42 43 42 42 42 41 39 36 34 36 38 39 39 39 38 38 38 39 39 40 41 42 43 43 44 45 46 47 48 50
36 29 29 36 34 28 32 35 34 35 36 36 37 33 30 22 14 19 20 13 9 5 8 19 24 34 39 33 32 30 25 24 25 27 29 28 29 28 25 27 24 23 23 24 32 32 31 31 34 39 45 47 48 47 46 45 44 44 44 43 42 41 39 38 36 36 36 37 38 38 38 38 38 39 39 40 41 42 42 43 44 46 47 47 48 50
35 32 29 33 32 27 34 39 39 41 41 40 40 37 34 31 24 22 24 25 16 5 7 8 12 35 43 27 20 19 19 27 32 32 37 38 33 27 25 27 24 23 25 27 34 32 29 33 39 44 49 49 49 48 46 46 46 46 46 44 43 41 39 39 38 36 36 36 37 37 38 38 38 39 40 40 41 41 42 44 45 46 46 47 48 50
34 35 35 37 38 38 44 48 46 45 42 40 41 40 38 37 32 18 13 27 28 17 18 12 8 38 52 33 27 32 33 42 44 43 49 51 42 34 30 28 26 27 30 33 37 35 34 40 45 49 53 51 50 50 49 49 48 47 47 45 43 41 40 39 38 37 36 36 37 38 38 38 38 39 40 40 41 42 43 44 45 46 46 47 48 48
34 35 35 38 41 44 46 47 45 42 39 36 35 36 37 38 40 28 14 23 30 29 37 26 10 38 63 52 48 55 56 57 57 55 56 53 47 41 38 35 32 31 34 38 41 41 42 48 52 54 55 52 51 51 50 51 50 49 48 46 43 41 40 39 38 37 36 36 37 38 38 38 38 39 40 40 41 42 44 45 45 45 46 47 48 46
31 33 33 33 37 42 47 49 47 40 32 31 36 41 41 42 47 42 33 31 25 26 34 18 6 38 69 62 58 64 62 60 58 56 54 50 48 48 48 48 43 37 37 40 44 47 51 54 57 58 57 54 53 52 52 53 52 50 49 46 43 41 39 39 38 37 36 36 37 37 37 38 39 39 40 41 42 43 44 45 44 45 46 47 46 43
30 33 31 23 20 25 33 37 39 38 36 37 44 46 45 46 44 41 43 37 25 35 41 13 6 43 68 64 62 64 60 57 57 55 55 54 54 54 54 51 47 44 43 44 48 52 55 57 60 61 58 55 54 54 54 54 52 51 49 46 44 41 40 40 39 38 37 37 37 37 37 38 39 40 40 41 42 43 44 44 44 45 46 46 43 41
33 34 33 25 15 12 18 24 26 30 35 39 45 47 45 45 41 40 45 35 25 42 47 24 25 57 69 63 65 66 62 62 63 61 60 60 58 58 57 54 50 50 51 51 53 54 56 60 62 60 56 55 55 55 55 54 53 51 49 47 45 42 41 40 39 38 38 37 37 37 38 39 39 40 40 41 42 43 43 43 43 45 46 44 41 41
37 38 40 40 36 33 40 47 40 31 28 30 35 39 38 39 39 40 43 41 37 35 33 39 53 63 63 63 68 70 66 66 67 65 64 64 63 62 59 54 53 54 55 55 56 58 62 64 63 58 55 56 56 54 54 54 52 51 49 47 45 43 41 39 39 39 38 37 37 37 38 39 39 39 40 41 42 42 43 42 43 44 44 40 39 42
39 40 41 45 49 50 53 56 52 45 41 36 32 32 31 31 35 40 46 53 49 27 22 49 63 53 53 64 70 72 70 68 69 67 65 65 65 63 59 56 58 60 61 62 64 66 66 64 61 57 56 58 56 54 54 53 51 51 50 48 46 44 42 40 39 40 38 37 37 37 38 39 39 39 40 40 41 42 42 42 43 43 40 38 40 43
40 40 42 45 47 49 49 50 52 53 50 43 38 36 37 38 42 50 57 62 55 38 40 59 59 48 53 65 72 76 74 71 70 69 68 67 64 64 64 65 67 67 66 68 68 66 62 59 57 56 57 59 55 53 54 52 50 50 50 48 46 44 42 41 40 40 38 37 37 38 39 39 39 39 40 40 40 41 41 41 42 40 36 37 40 42
38 40 42 44 45 46 48 51 55 54 51 49 48 45 46 51 54 56 59 63 59 56 61 63 54 54 63 71 76 77 74 75 74 71 73 73 71 70 69 68 68 66 65 67 66 62 60 58 57 57 59 58 53 52 53 50 49 49 50 49 46 44 43 41 40 39 38 37 37 38 39 39 39 39 39 40 40 40 40 41 40 36 34 36 39 41
42 43 43 44 43 43 49 55 57 55 52 50 49 48 54 60 58 55 58 63 59 58 63 59 52 59 70 74 76 74 73 76 74 72 74 74 73 71 65 65 66 64 64 65 64 62 61 60 59 59 59 56 51 50 50 48 48 50 50 49 46 44 42 40 40 39 38 37 38 39 40 40 40 39 39 39 38 39 40 39 36 33 33 36 37 39
44 44 45 44 36 38 50 55 55 55 51 44 43 50 60 63 59 58 64 66 60 57 59 54 51 62 73 73 72 73 72 71 69 70 71 71 70 66 62 63 64 62 63 62 60 60 59 58 58 57 55 52 49 47 47 47 49 49 48 46 43 41 40 40 39 38 38 38 39 40 40 40 40 39 38 38 38 38 39 36 32 31 32 34 36 38
43 41 42 38 31 38 51 52 50 45 32 31 45 58 65 65 63 66 69 67 63 62 58 54 58 70 75 72 72 73 69 66 66 68 69 70 69 65 62 63 62 60 59 54 52 53 53 52 52 52 51 48 45 45 45 46 45 44 44 42 40 38 38 39 39 38 39 39 40 41 40 40 39 39 38 37 37 38 36 33 30 30 31 33 35 37
42 41 42 39 32 35 45 48 41 27 18 31 52 59 59 60 63 68 69 66 65 63 58 59 67 72 71 69 70 71 67 65 66 66 66 68 67 64 63 62 59 54 48 42 43 46 47 47 49 49 48 45 43 43 42 41 41 40 40 39 38 37 38 38 38 39 39 40 41 41 41 40 39 38 37 37 36 36 33 30 29 30 30 32 34 37
46 44 45 44 37 36 41 36 20 13 28 50 56 51 52 56 60 65 66 64 65 63 59 62 67 67 65 64 64 66 66 65 65 64 63 63 62 61 60 55 48 42 37 36 42 46 46 48 49 48 46 43 41 40 38 37 37 37 37 36 36 36 37 37 38 39 40 41 41 41 41 40 39 37 36 36 35 33 30 28 29 29 29 31 34 36
54 51 47 45 39 34 29 23 17 19 34 47 48 48 52 54 56 60 63 64 64 61 59 63 63 61 60 59 60 62 61 62 62 57 53 55 56 53 50 46 38 33 34 39 44 46 45 47 48 47 43 40 37 36 35 34 34 34 34 34 34 35 36 38 39 40 40 41 41 41 41 39 37 36 35 34 33 30 28 28 29 28 29 31 33 36
59 57 51 44 40 34 28 28 34 32 25 29 41 48 51 54 57 58 57 58 57 54 55 59 58 55 57 59 61 59 55 58 60 48 38 42 47 44 41 36 30 30 36 41 43 43 42 42 42 39 37 36 35 35 34 33 33 33 33 33 34 36 38 39 40 41 41 41 41 41 40 38 36 34 34 33 31 28 27 28 28 28 28 31 33 36
60 61 57 48 42 42 36 27 22 19 19 33 49 53 48 49 56 55 48 44 45 48 51 54 54 53 55 56 55 52 50 54 54 42 34 37 42 42 37 30 28 32 38 40 41 39 38 37 35 34 34 36 36 35 35 34 34 33 33 33 35 36 38 40 40 40 40 40 40 40 38 36 34 33 33 31 28 27 28 28 27 27 28 30 33 36
59 63 63 56 46 40 34 19 10 14 26 41 54 53 44 43 54 53 37 34 46 52 51 50 48 47 46 44 42 43 49 53 49 38 36 38 41 41 36 31 31 35 37 37 37 37 38 38 36 36 37 37 37 37 36 36 36 35 34 34 34 36 38 39 39 39 40 40 40 39 37 35 33 32 31 29 27 27 28 27 26 26 28 31 33 35
57 61 62 59 52 47 41 30 23 27 34 40 46 50 48 51 55 40 23 33 55 56 49 47 44 41 39 37 35 38 43 47 42 34 34 37 40 40 37 36 36 36 36 36 35 35 39 41 42 42 41 40 40 41 41 41 40 38 37 35 35 36 37 37 38 39 39 40 39 37 35 33 32 31 29 27 27 28 27 26 25 25 28 31 33 35
51 57 60 61 60 58 51 39 33 39 46 48 50 56 58 53 42 31 32 52 64 56 51 50 44 39 38 37 37 39 41 42 40 36 33 35 38 39 40 42 41 38 35 35 35 36 39 41 43 45 46 46 46 46 45 46 44 42 39 36 35 35 36 37 38 38 39 39 38 35 33 32 31 29 27 26 27 27 26 25 25 25 28 31 33 34
41 45 50 57 59 59 57 48 38 41 53 57 59 62 57 45 41 48 61 69 63 56 56 52 43 39 38 38 41 44 44 45 44 40 37 37 38 39 41 44 43 40 37 37 36 37 40 43 44 45 46 47 48 48 47 46 45 42 37 35 34 35 35 36 37 38 39 38 36 33 31 30 29 26 26 26 26 26 25 24 24 25 28 30 32 34
44 39 39 47 52 52 48 35 23 30 49 60 61 59 57 56 58 67 72 66 59 58 55 49 45 42 39 40 43 45 48 49 45 42 41 41 41 42 44 45 45 44 45 44 42 40 42 45 48 48 48 47 46 47 47 46 42 38 34 33 34 34 35 36 37 38 39 37 34 32 30 29 27 25 25 25 25 24 24 23 23 25 28 30 32 33
50 45 41 44 48 46 40 34 36 51 64 65 61 61 65 68 69 67 63 62 60 56 50 48 48 45 42 44 46 47 50 50 47 45 44 43 44 46 47 47 47 48 49 49 47 46 45 46 49 51 52 51 49 48 48 46 43 38 35 35 35 34 35 36 37 39 38 35 32 30 29 27 25 25 25 24 23 23 23 22 23 25 27 29 31 33
55 55 54 55 57 56 54 58 66 72 69 63 63 67 70 71 67 61 60 62 60 55 52 51 50 47 47 49 50 51 52 51 49 47 46 47 49 49 48 48 49 49 48 47 47 49 50 49 50 51 53 55 54 52 51 49 45 42 39 36 35 35 35 36 37 38 36 32 31 30 28 26 25 25 24 23 22 22 22 22 22 24 26 28 31 33
56 59 61 63 64 62 62 65 65 64 64 63 63 64 65 64 62 60 60 61 59 57 54 52 51 52 52 53 55 56 55 53 51 50 49 51 53 52 50 50 50 48 47 45 47 49 50 52 52 53 55 56 54 54 54 51 47 44 40 36 35 35 36 37 38 38 35 31 30 29 27 26 26 25 23 22 22 21 21 21 21 22 25 27 30 32
44 47 49 54 56 54 54 54 53 56 62 61 59 60 62 60 58 57 58 59 59 56 54 54 55 56 56 57 58 58 58 56 55 55 55 55 55 54 53 52 53 53 51 51 52 52 52 53 54 55 57 56 55 55 55 52 48 44 41 37 36 36 37 38 38 37 33 31 30 29 27 26 26 24 23 21 21 20 20 20 21 22 24 27 29 32
39 41 43 46 50 51 52 52 50 52 55 54 54 56 56 55 56 57 58 59 58 56 56 55 56 57 59 59 59 59 61 60 59 59 59 57 56 56 55 54 57 58 57 55 55 54 53 54 55 56 56 56 56 56 55 54 49 44 41 39 38 39 39 40 38 36 33 31 30 28 27 27 26 24 22 21 20 20 19 20 20 22 24 27 29 31
36 39 40 42 45 49 51 49 49 52 54 54 54 53 50 48 49 49 51 54 54 54 54 54 57 59 60 59 60 61 63 63 61 61 60 58 57 57 56 56 59 60 60 58 56 54 54 55 55 56 56 55 56 56 56 55 51 45 42 40 40 41 42 40 38 35 33 31 29 28 28 27 25 23 22 21 20 19 19 19 20 22 25 27 29 31
42 44 46 47 53 58 59 55 51 52 55 56 56 56 55 53 51 49 50 51 51 51 52 54 57 58 57 58 60 61 63 65 64 62 62 60 58 58 59 59 59 61 61 60 57 56 54 54 54 55 54 54 56 56 56 56 53 47 43 41 41 42 42 40 38 35 32 30 29 28 28 26 24 22 21 20 19 19 18 18 19 22 25 27 29 31
53 51 48 48 53 58 57 53 48 47 50 53 53 52 52 53 52 51 50 51 52 52 52 53 53 53 53 55 57 59 62 64 64 63 63 62 61 61 61 61 61 61 61 61 60 59 56 53 53 54 54 54 55 56 57 58 55 49 43 41 42 42 41 39 37 34 31 30 29 28 26 24 22 22 20 20 20 19 18 18 19 22 24 26 28 30
Wind_Direction
278 279 282 284 290 294 290 282 275 275 275 276 278 278 280 282 285 294 295 293 294 294 293 295 295 296 297 299 302 303 300 296 295 294 290 285 280 278 278 278 279 281 282 278 273 271 266 265 270 272 270 273 279 282 282 282 280 279 277 274 273 271 270 270 272 274 275 275 276 278 280 282 283 285 287 290 291 291 293 295 296 297 297 297 297 297
273 275 281 287 289 287 279 272 271 272 273 275 275 276 279 281 287 295 295 292 295 294 293 297 296 294 297 300 302 302 300 299 298 296 295 292 283 279 282 282 281 282 279 275 275 273 267 266 268 267 267 273 278 281 283 283 282 281 279 277 275 274 273 273 273 274 275 276 277 278 280 282 283 285 287 288 290 291 293 294 295 296 295 296 296 298
271 275 284 285 279 275 272 269 269 271 273 272 272 273 276 282 290 293 293 294 295 294 295 297 296 294 297 300 302 303 302 301 300 302 301 295 290 289 290 286 280 279 278 277 277 270 263 263 264 264 267 273 277 281 283 283 282 281 280 278 276 274 273 273 272 273 274 275 277 278 279 281 282 284 286 288 290 292 294 294 294 294 295 296 297 298
270 277 281 274 270 271 270 270 271 273 273 272 273 273 275 283 288 288 292 295 293 292 294 296 295 295 297 301 302 301 300 299 298 303 300 291 295 296 291 288 280 277 278 278 273 261 258 263 265 266 271 277 281 283 283 280 280 279 278 276 274 274 273 273 273 273 274 275 276 277 278 279 282 284 285 287 290 292 293 293 293 293 294 295 297 299
269 273 270 265 268 272 271 273 276 276 276 277 276 274 278 285 286 285 290 291 291 291 291 297 300 297 298 302 298 285 290 300 302 299 299 297 296 293 289 287 280 275 276 276 265 254 261 268 267 271 279 285 286 285 282 278 276 274 273 272 272 273 275 275 275 274 275 276 275 276 278 279 281 283 285 287 289 290 290 291 291 292 294 296 298 301
267 267 263 263 268 271 273 275 278 278 277 276 276 277 281 285 284 283 286 287 291 291 290 302 309 298 296 291 278 278 289 300 303 298 302 305 295 288 287 283 278 276 274 269 260 258 266 267 271 285 291 292 291 287 283 278 274 272 271 271 272 274 276 276 275 275 275 275 275 277 278 279 280 282 284 285 287 288 288 289 290 292 294 297 300 303
264 261 259 263 267 271 273 273 277 280 275 271 276 282 281 281 281 279 281 283 285 283 285 296 298 288 286 270 275 287 292 296 297 298 305 306 294 281 278 282 280 275 268 261 262 265 266 270 288 301 300 298 296 292 287 281 277 275 273 274 274 276 276 276 275 274 275 275 275 275 276 277 279 280 282 284 285 286 286 288 290 292 295 297 300 302
261 260 260 265 267 270 271 273 280 280 272 270 278 282 278 278 278 276 279 279 282 285 286 288 284 279 273 269 280 289 290 289 291 298 305 305 298 274 268 283 279 267 260 260 267 268 265 278 298 306 306 303 301 297 291 285 281 279 277 277 277 277 277 277 276 275 274 274 273 273 274 275 277 279 281 282 284 285 286 288 291 294 296 298 299 300
261 261 263 266 266 268 272 277 280 277 271 272 276 276 273 275 274 275 281 282 288 291 283 281 282 275 270 275 284 287 280 284 292 300 305 306 303 279 269 282 267 255 258 264 270 266 263 281 299 306 309 307 305 301 293 285 281 279 277 277 278 278 278 277 276 275 273 272 271 272 273 275 276 278 280 282 283 284 287 291 293 295 297 298 299 301
259 261 263 264 265 270 275 277 276 273 271 272 273 272 270 271 271 276 284 286 290 284 258 270 275 264 272 275 271 269 269 279 294 303 305 306 300 280 278 278 257 253 264 268 269 263 265 287 303 310 313 312 309 304 297 288 281 278 277 278 279 279 278 276 275 273 271 271 271 271 272 274 276 278 280 281 283 286 290 294 296 297 297 298 300 303
258 261 260 261 266 271 273 274 274 272 269 269 270 269 269 272 275 279 281 280 283 268 250 271 272 256 265 272 260 267 272 285 299 303 302 301 295 289 288 277 267 270 272 270 266 261 272 294 307 316 316 314 311 305 299 292 284 279 277 277 279 280 278 276 273 271 270 269 269 270 271 273 276 278 280 282 284 288 292 295 295 295 296 298 301 303
259 259 260 262 266 269 271 271 272 271 269 268 265 265 270 278 281 278 270 258 251 253 261 280 274 248 239 252 269 274 279 293 299 299 296 299 299 293 287 278 278 280 276 273 269 267 282 298 309 318 317 313 311 305 297 290 284 281 280 279 280 281 280 277 274 271 269 268 268 269 271 273 275 278 280 283 286 290 292 293 293 294 296 299 301 302
260 260 261 262 263 265 267 267 267 267 265 262 257 256 260 275 284 258 226 214 237 256 269 276 271 244 245 258 267 270 278 288 289 287 298 305 300 286 282 284 285 282 279 279 275 276 289 300 309 317 319 318 315 309 299 287 281 280 281 282 283 283 282 279 275 272 270 268 268 269 271 273 275 278 281 284 287 289 290 291 292 295 297 300 300 301
261 262 258 257 260 262 263 262 263 265 264 262 256 248 235 211 263 249 236 245 249 263 273 271 267 257 260 270 276 275 281 287 285 288 299 304 297 280 279 284 286 285 284 282 280 286 295 302 306 311 317 322 320 313 305 295 287 283 283 285 285 285 284 280 276 273 271 269 269 269 270 272 274 277 280 283 286 288 289 291 293 296 298 299 300 301
256 262 258 255 259 263 265 264 265 267 266 264 259 246 232 224 224 240 266 274 289 294 286 259 247 262 265 277 284 284 287 291 292 292 294 299 296 284 275 277 287 289 286 284 286 294 300 301 302 305 313 322 322 317 310 304 298 292 290 289 289 288 286 282 278 274 271 270 269 269 269 270 273 276 280 283 285 287 289 291 294 296 297 298 300 301
250 257 262 260 260 264 267 266 264 262 256 254 249 232 231 240 239 242 266 271 287 304 282 238 248 267 272 276 278 282 288 290 290 286 288 297 298 286 272 277 291 290 284 285 290 298 300 298 298 301 311 320 322 319 312 307 303 299 297 295 294 292 288 283 279 274 272 270 269 269 269 271 274 277 280 283 285 287 290 292 294 296 297 299 300 301
247 258 266 265 262 264 265 263 260 253 245 242 236 230 238 247 242 237 259 270 273 287 273 260 263 273 278 280 280 283 286 283 281 286 291 296 295 284 273 280 289 285 279 280 289 298 299 298 296 298 309 317 319 317 312 307 305 302 301 300 300 298 293 287 281 276 273 270 269 269 270 272 275 277 280 282 285 288 290 292 294 296 298 299 300 301
251 259 267 267 265 263 258 256 253 248 242 236 235 239 245 247 234 228 243 279 258 251 272 270 273 279 278 278 282 283 277 275 283 292 293 291 291 288 282 287 288 276 268 274 291 301 300 297 294 296 307 316 317 316 311 307 306 305 304 303 303 301 298 292 284 278 273 270 269 269 270 272 274 277 280 282 285 288 290 293 295 296 298 299 300 302
251 255 265 266 263 262 259 252 243 242 239 237 242 243 238 227 206 209 209 247 251 227 274 277 279 280 273 267 276 280 279 281 284 291 294 293 295 295 292 294 286 263 256 276 296 303 298 291 289 297 309 315 315 314 310 307 306 306 305 304 302 302 300 296 288 281 275 271 269 269 269 271 273 277 279 282 285 288 290 293 295 296 298 299 301 303
249 248 260 263 260 258 254 244 235 237 237 233 236 236 233 232 220 216 218 224 240 233 262 278 283 279 274 273 279 281 280 279 280 288 295 298 299 296 293 295 282 251 248 280 299 299 292 286 288 299 310 314 313 312 310 308 307 306 305 303 301 300 298 296 292 285 278 272 269 267 268 270 273 276 279 282 285 288 290 293 294 296 297 299 301 303
242 239 248 258 259 252 248 249 251 252 246 235 231 230 230 232 228 232 233 228 229 242 260 267 274 272 274 280 280 277 275 275 277 284 290 295 296 291 287 290 279 251 246 274 295 295 285 286 293 301 307 311 311 310 310 309 307 304 303 302 300 297 294 294 293 289 281 273 269 267 268 270 272 275 279 282 284 287 290 292 294 295 297 299 302 303
236 235 241 249 253 254 258 264 265 261 257 251 246 242 243 242 232 226 236 234 231 229 239 235 250 267 270 273 273 273 275 276 277 281 287 291 291 286 284 283 277 264 257 268 285 289 285 289 297 301 304 307 308 307 308 309 306 303 300 298 297 294 291 290 291 289 282 273 268 267 268 270 272 275 279 281 283 286 289 291 293 295 297 300 302 302
245 239 237 243 252 259 265 267 264 260 257 254 251 248 250 249 236 222 219 236 234 231 241 243 245 265 267 269 273 277 279 279 280 283 287 288 287 288 289 285 279 270 264 269 280 284 286 291 296 298 301 304 305 306 307 307 305 302 299 296 294 292 288 287 288 288 281 273 269 267 268 270 272 275 278 280 282 285 288 290 292 294 297 300 301 302
240 230 230 241 251 256 259 261 264 265 256 244 246 246 244 244 241 236 235 239 240 236 240 239 224 261 267 271 276 279 280 280 283 285 287 287 286 289 292 291 288 279 271 273 280 284 289 293 295 297 299 301 302 305 306 305 303 300 296 294 291 289 286 284 285 285 280 273 269 268 268 270 272 274 276 279 281 284 287 290 292 294 298 300 301 302
236 228 228 235 247 253 256 260 262 257 247 243 250 251 248 248 246 240 238 241 247 246 243 237 228 257 267 274 276 277 278 280 283 285 286 286 286 289 292 293 293 289 284 283 285 288 291 293 294 296 299 300 301 303 303 304 301 297 294 291 288 286 283 281 281 282 278 272 269 267 268 269 270 272 275 278 281 283 286 289 291 295 298 299 300 302
245 238 233 228 225 230 240 247 249 246 241 241 247 250 250 250 244 238 239 237 241 247 244 240 249 257 266 273 273 274 276 278 281 283 284 285 286 289 290 291 293 292 290 290 290 291 291 291 293 296 299 300 300 300 301 301 298 294 292 289 285 283 280 278 278 278 276 272 268 267 267 268 269 271 274 277 280 283 286 289 291 295 297 298 300 303
249 245 239 234 233 233 239 247 253 257 255 250 252 254 253 252 248 243 239 234 237 243 241 243 252 258 265 271 274 274 274 276 279 281 283 284 285 287 288 289 292 290 288 290 290 290 291 292 294 296 297 298 298 297 298 298 294 292 290 286 284 281 278 275 275 275 274 270 267 265 266 267 268 271 274 277 280 283 285 288 292 295 297 298 302 305
243 241 240 240 242 242 246 252 256 259 261 261 265 265 260 261 257 244 240 244 245 240 243 254 258 260 264 269 275 276 275 276 279 281 282 282 283 285 286 287 290 288 287 287 287 289 292 292 294 295 294 295 294 294 296 294 291 291 288 285 283 280 276 273 273 273 272 269 266 264 265 266 267 270 273 276 279 283 285 289 293 295 297 299 304 307
241 242 243 244 246 247 248 252 255 256 258 258 261 264 264 268 264 253 253 257 253 243 249 259 262 263 266 270 275 278 278 278 279 281 281 280 280 281 283 286 288 289 289 288 289 291 293 294 294 293 292 292 292 293 294 292 288 288 286 283 282 278 274 272 271 271 270 266 263 262 263 264 266 269 272 275 279 282 286 290 293 295 297 301 306 310
246 246 245 246 250 251 249 250 252 255 258 258 259 263 264 264 262 260 263 265 259 253 256 261 263 264 267 271 274 277 279 278 278 280 280 280 281 281 283 285 288 290 290 290 292 294 294 295 293 291 291 292 291 292 292 288 285 284 282 280 278 275 272 269 268 269 267 263 261 260 261 263 265 268 271 275 279 282 287 291 293 294 298 303 308 313
247 249 249 249 254 255 250 250 250 251 255 260 261 262 261 260 259 258 261 262 260 258 260 262 262 262 268 273 275 277 280 279 279 280 280 282 284 283 285 287 288 289 290 291 294 295 295 294 293 292 292 291 289 290 289 284 281 280 278 277 276 273 270 267 266 266 263 260 259 258 260 262 264 267 271 275 279 283 287 291 291 293 299 305 311 316
250 252 252 250 252 252 249 249 249 250 254 258 258 255 253 253 253 252 253 256 256 258 262 263 259 261 270 277 278 278 280 279 279 280 283 285 286 285 286 287 288 289 290 292 294 295 295 294 293 293 291 287 285 286 284 280 278 277 277 276 274 271 267 264 264 263 260 258 257 257 258 260 263 267 271 275 279 283 287 288 288 292 300 306 313 319
254 252 249 247 245 248 249 248 248 252 254 249 247 247 247 248 251 251 252 255 256 257 259 260 260 264 272 278 277 277 278 278 279 282 285 286 286 286 286 287 287 288 290 293 296 296 295 294 294 290 285 281 280 280 278 277 276 277 278 275 271 267 264 262 262 260 257 256 255 256 257 259 263 266 270 274 279 284 286 284 286 293 300 308 316 322
253 248 247 244 242 247 250 250 250 249 239 242 248 249 249 250 252 253 254 258 260 258 257 260 264 269 274 277 276 276 277 278 281 284 285 285 285 286 286 286 287 289 292 294 295 293 292 291 289 284 279 276 276 275 274 275 276 278 277 273 269 264 262 261 260 257 256 255 254 255 257 259 262 266 270 275 279 283 282 280 285 294 302 311 318 324
249 247 247 244 242 247 250 249 248 233 236 246 252 254 255 257 257 256 258 260 261 260 260 263 266 271 277 280 279 278 278 279 282 284 284 285 285 285 285 287 289 291 291 291 290 290 290 288 284 281 277 275 274 273 274 278 280 279 276 273 270 266 264 262 260 257 256 254 253 255 256 258 262 266 270 275 279 279 276 278 286 295 304 312 320 327
247 246 245 242 241 243 241 230 224 239 246 247 250 254 258 259 258 256 255 256 259 260 263 266 270 275 280 282 282 282 281 281 283 284 283 285 286 285 285 286 287 287 285 285 288 292 294 291 286 282 278 275 273 274 277 280 280 277 276 274 271 268 266 263 261 258 255 253 253 254 256 259 263 266 270 275 276 274 272 278 287 296 305 314 321 328
245 243 241 240 238 235 231 228 233 245 250 239 244 257 263 264 264 259 253 254 259 263 266 268 273 277 280 283 286 288 288 285 283 284 288 291 291 290 288 284 281 279 280 282 287 292 294 292 286 279 274 271 271 274 276 278 278 278 277 275 272 270 267 264 261 257 254 252 252 253 256 259 262 266 270 273 271 268 271 279 287 297 306 315 322 329
244 239 237 237 235 232 234 237 236 241 240 234 244 259 270 272 270 263 254 253 258 263 267 269 273 280 285 289 290 290 289 283 280 290 306 304 297 295 292 282 274 275 278 282 286 288 288 287 281 275 272 273 275 275 275 275 277 277 277 275 273 270 267 264 261 256 253 252 251 253 255 258 261 266 269 269 265 265 271 279 288 298 307 315 322 329
242 239 235 235 236 233 232 235 228 233 240 239 246 259 272 275 267 260 254 253 257 263 268 270 277 287 290 292 291 288 281 274 274 296 315 307 299 297 289 277 273 276 279 284 286 284 281 280 276 274 276 277 277 277 277 277 276 275 275 275 273 270 267 263 259 255 252 251 250 252 254 256 261 265 266 264 261 264 271 279 288 299 308 315 322 328
235 234 231 231 233 234 235 240 241 240 243 244 249 260 270 271 266 256 244 253 261 267 270 274 284 292 287 284 285 280 272 266 273 297 310 301 297 296 286 277 277 279 281 286 288 286 284 280 276 275 276 277 278 280 280 280 278 276 275 274 272 270 266 261 257 253 250 248 248 250 252 256 261 263 261 258 259 264 272 280 290 300 309 316 323 327
230 230 228 228 231 233 233 237 241 243 244 246 252 260 264 263 252 234 243 263 269 271 274 278 284 286 278 273 273 274 272 271 279 293 300 300 300 296 289 285 282 281 283 288 292 295 293 289 284 282 280 279 280 281 282 282 279 276 274 272 270 268 262 257 253 250 247 246 246 247 251 255 259 259 255 255 259 265 273 281 290 302 310 317 322 326
224 225 225 225 228 231 233 236 242 245 245 248 255 258 254 242 232 242 262 272 273 272 275 278 277 274 273 269 268 276 284 284 284 286 292 299 302 297 293 290 287 284 285 288 292 296 296 295 295 292 289 287 285 283 283 282 278 273 271 270 268 263 257 252 249 246 243 242 243 245 251 255 256 253 250 253 259 266 274 282 292 303 310 316 321 325
227 226 223 221 225 231 234 233 234 241 247 252 255 249 238 236 249 265 273 273 271 273 277 277 272 271 274 275 275 283 290 289 284 281 284 293 299 299 297 294 291 289 288 289 291 292 292 293 295 295 296 297 294 290 287 284 278 271 268 267 264 258 252 248 244 240 238 239 241 245 251 253 250 247 247 253 260 268 276 284 294 303 311 316 320 323
233 229 227 226 227 228 225 226 241 254 258 257 253 247 248 257 271 280 276 268 269 276 276 272 271 272 276 280 283 286 288 288 284 281 283 291 297 298 297 296 295 293 291 290 288 286 285 287 290 292 294 296 296 295 294 289 281 271 266 263 259 254 248 243 238 235 235 237 239 245 250 248 244 243 246 253 262 270 278 286 295 304 311 316 319 323
237 238 242 243 239 236 238 247 258 265 266 261 254 255 261 267 271 274 270 267 270 274 271 270 274 277 279 283 284 284 286 286 284 281 284 291 294 294 293 295 297 295 292 291 288 285 283 282 285 288 289 291 293 294 294 291 280 268 263 260 255 249 244 238 235 233 233 235 238 243 245 241 239 242 246 254 264 271 279 288 297 306 312 316 319 323
245 247 249 250 248 250 253 257 261 265 265 261 259 262 266 266 265 265 266 266 269 271 270 271 275 281 284 284 282 282 286 288 286 284 285 288 290 289 288 291 295 294 292 291 291 289 286 283 283 284 285 288 290 291 293 291 281 270 265 258 250 244 239 235 233 232 231 233 236 239 238 235 236 240 246 255 265 272 280 289 298 308 314 316 319 323
255 252 252 252 253 255 255 254 255 258 260 261 261 262 263 265 265 265 266 267 270 272 271 270 275 283 285 283 280 282 285 287 288 288 287 287 288 287 286 286 289 290 290 291 291 290 288 285 283 282 283 286 287 288 290 290 282 272 265 256 245 239 235 232 231 230 230 232 234 233 231 231 234 240 247 256 265 273 281 290 300 309 314 317 320 324
269 267 268 267 264 261 259 258 257 258 259 260 260 261 263 264 265 266 268 269 270 270 269 271 276 282 283 281 281 282 283 285 286 286 287 286 286 287 285 283 283 286 289 292 291 289 288 287 285 281 280 282 283 284 286 287 283 274 264 254 242 234 231 229 228 228 228 230 230 228 228 230 234 240 247 257 265 272 281 291 302 310 313 316 320 324
275 273 273 274 273 270 268 265 262 260 259 257 257 260 264 266 267 267 267 267 267 268 269 272 277 280 281 281 281 281 282 283 284 285 286 286 285 284 284 283 283 284 288 291 290 287 286 287 284 279 277 278 279 281 283 285 283 274 262 252 240 231 227 226 225 225 227 227 226 225 226 230 234 239 248 257 264 272 282 293 304 310 313 316 321 325
269 269 271 273 272 273 274 275 274 273 272 269 268 268 266 266 267 266 265 265 267 268 270 273 275 277 278 278 279 279 280 281 283 284 286 285 284 283 283 284 284 284 286 289 288 285 285 286 281 276 275 275 276 278 279 280 278 271 260 248 236 228 224 223 223 225 226 224 222 222 226 230 234 240 249 258 264 272 283 294 304 308 311 315 320 324
268 269 271 269 268 270 275 278 278 277 276 276 276 274 271 269 269 268 267 268 269 271 272 273 272 272 272 273 275 277 278 279 280 281 282 282 281 281 282 282 283 283 284 287 286 282 282 283 278 272 271 272 273 275 275 275 274 268 256 242 231 223 220 220 222 224 224 221 219 221 226 230 234 241 250 257 264 273 283 292 300 305 308 314 319 325
Height
3159 3157 3156 3155 3153 3153 3152 3151 3150 3148 3147 3146 3145 3143 3142 3139 3136 3137 3137 3133 3132 3127 3123 3123 3119 3114 3114 3115 3115 3117 3116 3112 3109 3108 3107 3106 3104 3104 3103 3102 3100 3099 3098 3097 3096 3096 3096 3096 3096 3096 3095 3096 3095 3095 3094 3093 3093 3092 3092 3092 3091 3092 3091 3091 3091 3090 3090 3089 3088 3088 3086 3085 3084 3084 3083 3082 3081 3080 3079 3078 3077 3075 3074 3072 3070 3069
3155 3153 3152 3152 3151 3150 3149 3148 3147 3145 3144 3143 3142 3140 3138 3136 3133 3134 3134 3130 3129 3123 3117 3118 3113 3107 3108 3109 3109 3109 3109 3107 3105 3104 3102 3102 3101 3100 3100 3097 3095 3094 3093 3093 3093 3092 3092 3092 3092 3092 3092 3092 3091 3091 3090 3088 3088 3087 3087 3086 3086 3086 3086 3086 3086 3085 3085 3084 3084 3083 3082 3081 3080 3079 3079 3078 3077 3076 3075 3074 3072 3071 3070 3068 3067 3065
3151 3149 3148 3149 3148 3147 3146 3145 3144 3142 3141 3140 3139 3138 3135 3133 3131 3130 3130 3127 3125 3120 3113 3112 3106 3099 3101 3103 3103 3102 3101 3101 3101 3101 3100 3099 3098 3097 3096 3093 3091 3090 3089 3089 3089 3088 3089 3089 3088 3089 3088 3088 3088 3087 3085 3084 3083 3083 3082 3081 3081 3080 3080 3080 3080 3080 3079 3079 3079 3078 3077 3076 3075 3075 3074 3073 3072 3071 3070 3069 3068 3067 3065 3064 3063 3061
3146 3145 3146 3146 3144 3143 3142 3142 3141 3139 3137 3137 3137 3135 3132 3131 3130 3126 3125 3124 3121 3117 3112 3108 3100 3092 3094 3096 3096 3096 3095 3096 3097 3098 3098 3096 3095 3094 3091 3089 3088 3087 3086 3085 3085 3085 3085 3085 3085 3085 3085 3085 3084 3082 3081 3080 3079 3078 3077 3076 3075 3075 3075 3075 3075 3075 3074 3074 3073 3073 3072 3072 3071 3070 3069 3068 3067 3066 3065 3064 3063 3062 3061 3060 3059 3057
3142 3142 3142 3142 3141 3140 3139 3139 3138 3136 3134 3134 3134 3132 3129 3129 3129 3124 3123 3121 3117 3115 3110 3107 3096 3083 3086 3089 3089 3092 3091 3091 3092 3092 3093 3092 3091 3090 3087 3086 3085 3083 3082 3082 3082 3082 3081 3081 3082 3082 3083 3081 3080 3078 3077 3076 3074 3073 3072 3071 3070 3070 3070 3070 3071 3070 3069 3069 3068 3068 3068 3067 3066 3065 3064 3063 3063 3062 3061 3059 3058 3057 3057 3056 3055 3053
3137 3139 3138 3138 3138 3136 3136 3135 3135 3133 3130 3130 3129 3128 3127 3126 3125 3122 3121 3118 3115 3112 3108 3109 3098 3076 3077 3084 3084 3087 3086 3086 3088 3085 3087 3088 3086 3085 3084 3083 3082 3080 3079 3079 3079 3079 3078 3079 3079 3079 3078 3077 3075 3074 3073 3071 3070 3069 3068 3067 3066 3066 3066 3066 3066 3065 3065 3064 3064 3063 3063 3062 3062 3061 3059 3059 3058 3058 3057 3055 3054 3053 3052 3052 3050 3049
3133 3135 3134 3134 3134 3133 3132 3131 3132 3131 3126 3124 3124 3126 3125 3122 3121 3119 3118 3116 3113 3110 3105 3111 3107 3080 3070 3078 3078 3081 3081 3080 3083 3082 3081 3082 3080 3080 3080 3079 3078 3076 3076 3076 3076 3076 3075 3076 3076 3075 3074 3073 3071 3070 3069 3067 3066 3065 3064 3062 3062 3061 3061 3061 3061 3060 3060 3059 3059 3058 3058 3057 3057 3056 3055 3055 3055 3054 3053 3052 3051 3050 3049 3048 3047 3045
3129 3130 3130 3130 3130 3129 3128 3126 3128 3128 3123 3119 3120 3122 3121 3119 3118 3116 3116 3114 3110 3107 3101 3105 3110 3087 3066 3068 3072 3075 3076 3075 3077 3078 3077 3077 3075 3075 3076 3075 3074 3072 3073 3073 3073 3072 3072 3072 3072 3071 3070 3069 3068 3067 3065 3064 3062 3061 3060 3058 3057 3057 3057 3056 3056 3056 3055 3054 3054 3053 3053 3052 3052 3051 3051 3050 3050 3049 3049 3048 3048 3047 3046 3044 3042 3041
3126 3126 3126 3126 3125 3124 3123 3123 3124 3123 3119 3116 3116 3117 3116 3116 3115 3113 3113 3112 3108 3105 3096 3095 3105 3090 3059 3056 3067 3068 3069 3070 3072 3074 3074 3072 3071 3070 3071 3071 3069 3070 3070 3070 3070 3069 3069 3069 3068 3067 3066 3065 3064 3063 3062 3061 3059 3057 3056 3054 3053 3053 3052 3052 3052 3051 3050 3049 3049 3048 3048 3047 3047 3047 3046 3046 3045 3045 3045 3044 3043 3042 3041 3039 3037 3035
3121 3120 3121 3121 3120 3119 3119 3119 3119 3118 3116 3113 3112 3112 3113 3112 3111 3111 3110 3109 3108 3100 3090 3089 3099 3090 3056 3045 3059 3062 3062 3067 3068 3069 3070 3069 3068 3067 3067 3067 3066 3067 3067 3067 3066 3066 3066 3065 3064 3063 3062 3061 3060 3059 3058 3057 3055 3054 3052 3051 3049 3049 3048 3048 3047 3046 3046 3045 3044 3044 3043 3043 3042 3042 3042 3041 3040 3040 3040 3039 3038 3037 3035 3033 3031 3029
3116 3115 3116 3116 3116 3116 3116 3115 3113 3114 3112 3110 3110 3108 3110 3109 3107 3109 3105 3107 3106 3090 3081 3083 3089 3088 3062 3041 3049 3055 3056 3062 3064 3065 3065 3065 3065 3064 3064 3063 3063 3063 3063 3062 3062 3062 3062 3061 3060 3058 3057 3057 3056 3055 3054 3052 3051 3050 3048 3047 3046 3045 3044 3043 3043 3042 3041 3040 3039 3039 3038 3038 3037 3037 3037 3036 3035 3035 3035 3034 3032 3031 3029 3027 3026 3024
3111 3110 3110 3111 3112 3112 3111 3110 3109 3109 3107 3107 3107 3106 3108 3107 3105 3105 3101 3105 3101 3082 3076 3079 3081 3083 3063 3042 3045 3050 3052 3058 3060 3061 3062 3061 3061 3060 3060 3060 3059 3059 3059 3058 3059 3058 3058 3057 3056 3054 3053 3053 3052 3051 3049 3048 3046 3045 3044 3043 3041 3040 3040 3039 3038 3037 3036 3035 3034 3034 3033 3033 3032 3032 3032 3031 3031 3030 3029 3028 3026 3025 3023 3022 3021 3019
3105 3104 3105 3106 3107 3107 3107 3106 3104 3103 3102 3102 3103 3105 3107 3105 3104 3102 3097 3096 3090 3078 3075 3077 3077 3071 3051 3041 3047 3049 3050 3054 3055 3057 3059 3058 3058 3056 3056 3055 3055 3055 3055 3055 3055 3055 3054 3053 3051 3050 3049 3048 3047 3046 3045 3043 3042 3040 3039 3038 3037 3036 3035 3034 3033 3032 3031 3030 3029 3029 3028 3028 3027 3027 3027 3026 3026 3025 3023 3022 3020 3019 3017 3016 3015 3014
3099 3098 3099 3101 3101 3101 3101 3101 3099 3097 3097 3097 3098 3102 3103 3102 3103 3097 3089 3085 3080 3074 3072 3074 3074 3059 3040 3038 3043 3043 3048 3051 3052 3053 3055 3054 3054 3053 3052 3051 3051 3051 3051 3051 3052 3051 3050 3048 3047 3045 3044 3043 3042 3041 3040 3039 3038 3036 3035 3033 3032 3031 3030 3029 3028 3027 3026 3025 3024 3024 3023 3023 3023 3022 3022 3021 3020 3019 3017 3016 3015 3013 3012 3011 3010 3009
3096 3090 3090 3095 3096 3095 3095 3096 3095 3093 3093 3093 3093 3097 3096 3095 3096 3090 3082 3079 3075 3071 3068 3071 3067 3048 3035 3036 3036 3037 3044 3047 3048 3049 3049 3050 3049 3049 3048 3048 3047 3047 3047 3047 3047 3047 3046 3044 3043 3041 3040 3039 3037 3036 3035 3034 3033 3031 3030 3029 3027 3026 3025 3024 3023 3022 3021 3020 3019 3019 3018 3018 3018 3017 3017 3016 3015 3013 3012 3011 3010 3009 3007 3006 3005 3003
3092 3084 3084 3090 3090 3090 3090 3091 3091 3091 3089 3088 3090 3092 3089 3087 3088 3085 3080 3076 3076 3073 3064 3060 3053 3037 3033 3034 3031 3035 3039 3040 3043 3043 3043 3044 3044 3044 3044 3043 3044 3043 3042 3043 3042 3043 3042 3040 3039 3037 3036 3034 3032 3031 3030 3029 3028 3026 3026 3024 3022 3021 3020 3019 3018 3017 3016 3015 3014 3013 3013 3013 3013 3012 3011 3010 3010 3008 3007 3006 3005 3004 3002 3000 2999 2997
3086 3081 3081 3083 3083 3085 3086 3085 3086 3086 3084 3084 3084 3083 3080 3081 3083 3084 3080 3076 3078 3075 3057 3046 3040 3030 3030 3028 3025 3031 3034 3034 3038 3038 3037 3039 3038 3039 3039 3039 3040 3038 3038 3039 3038 3039 3037 3036 3035 3033 3032 3031 3029 3028 3026 3025 3023 3022 3021 3019 3017 3016 3015 3014 3013 3012 3011 3009 3008 3008 3008 3008 3007 3007 3006 3005 3005 3004 3003 3002 3000 2999 2997 2995 2993 2991
3082 3078 3076 3077 3077 3079 3080 3080 3080 3079 3079 3080 3077 3076 3077 3079 3081 3081 3081 3076 3075 3071 3052 3039 3035 3028 3025 3022 3019 3025 3029 3030 3033 3033 3032 3033 3033 3034 3034 3035 3036 3034 3034 3034 3034 3034 3033 3032 3032 3030 3029 3027 3025 3024 3022 3020 3019 3017 3016 3014 3012 3011 3010 3009 3008 3006 3005 3003 3003 3002 3002 3002 3001 3001 3001 3000 3000 2999 2998 2997 2995 2994 2992 2990 2988 2985
3079 3076 3073 3072 3072 3074 3075 3075 3072 3072 3075 3074 3071 3072 3074 3075 3075 3077 3078 3074 3069 3066 3051 3037 3032 3021 3015 3017 3018 3021 3025 3026 3028 3028 3028 3029 3030 3030 3031 3032 3032 3030 3030 3030 3030 3030 3029 3028 3027 3025 3024 3022 3020 3019 3017 3016 3014 3012 3011 3009 3007 3006 3005 3004 3003 3001 3000 2998 2998 2997 2997 2996 2996 2996 2996 2995 2995 2994 2993 2992 2990 2989 2987 2984 2982 2979
3076 3074 3070 3067 3067 3069 3069 3066 3065 3066 3068 3067 3066 3068 3068 3068 3069 3069 3069 3065 3060 3058 3050 3041 3031 3010 3001 3011 3016 3017 3021 3023 3023 3023 3024 3025 3026 3026 3027 3028 3028 3027 3026 3025 3025 3025 3024 3023 3022 3020 3019 3017 3015 3014 3012 3011 3009 3007 3005 3003 3002 3001 2999 2999 2997 2996 2995 2994 2993 2992 2991 2991 2991 2991 2991 2990 2990 2989 2988 2987 2985 2983 2982 2979 2977 2974
3072 3071 3067 3064 3064 3063 3059 3056 3057 3058 3058 3059 3059 3060 3061 3063 3065 3063 3061 3057 3055 3054 3049 3044 3031 3004 2994 3007 3012 3013 3017 3018 3018 3018 3019 3022 3022 3023 3023 3023 3024 3025 3024 3022 3020 3020 3019 3018 3016 3015 3014 3012 3011 3009 3008 3006 3004 3002 3000 2998 2997 2995 2994 2993 2992 2991 2990 2988 2987 2987 2986 2986 2986 2986 2985 2985 2985 2984 2983 2981 2980 2978 2977 2975 2972 2969
3066 3065 3063 3062 3059 3055 3051 3051 3052 3051 3051 3052 3052 3052 3053 3056 3059 3058 3055 3050 3050 3049 3042 3038 3027 3002 2994 3004 3007 3010 3013 3012 3013 3014 3014 3017 3018 3018 3019 3019 3020 3021 3020 3018 3016 3015 3015 3012 3011 3010 3008 3007 3006 3004 3003 3001 2999 2997 2995 2993 2991 2990 2989 2988 2987 2986 2984 2983 2982 2981 2981 2981 2981 2980 2980 2980 2979 2978 2977 2976 2975 2973 2971 2969 2967 2964
3061 3060 3058 3056 3054 3051 3049 3048 3047 3045 3046 3048 3047 3048 3049 3049 3048 3048 3046 3042 3042 3040 3033 3030 3023 3002 2993 3001 3005 3006 3007 3006 3007 3009 3009 3010 3011 3012 3013 3014 3015 3015 3014 3013 3011 3010 3009 3007 3006 3004 3003 3002 3000 2998 2997 2995 2993 2991 2988 2987 2985 2984 2983 2982 2981 2980 2979 2977 2977 2976 2976 2975 2975 2975 2974 2974 2973 2972 2972 2971 2969 2968 2966 2964 2962 2959
3056 3054 3052 3051 3050 3049 3046 3041 3039 3038 3040 3041 3040 3040 3041 3039 3038 3039 3039 3037 3036 3032 3024 3024 3020 3001 2990 2999 3004 3001 3001 3002 3002 3004 3004 3005 3004 3005 3006 3006 3008 3009 3009 3007 3005 3004 3003 3001 3000 2998 2997 2996 2994 2992 2991 2989 2987 2985 2982 2981 2979 2978 2978 2977 2976 2975 2973 2972 2971 2970 2970 2970 2970 2969 2969 2969 2968 2967 2967 2966 2964 2963 2961 2959 2956 2953
3049 3048 3049 3049 3048 3046 3042 3035 3030 3030 3031 3031 3030 3032 3032 3032 3035 3036 3035 3036 3030 3020 3016 3019 3012 2996 2991 2999 3000 2997 2997 2998 2999 2999 3000 2999 2998 2999 2999 2999 3000 3000 3001 3001 2998 2997 2996 2994 2993 2992 2991 2989 2987 2986 2984 2982 2980 2978 2975 2974 2973 2973 2972 2971 2970 2969 2967 2966 2965 2965 2965 2964 2964 2964 2963 2963 2963 2962 2962 2960 2959 2958 2956 2953 2951 2948
3042 3041 3042 3043 3041 3037 3031 3023 3020 3021 3023 3024 3025 3026 3027 3029 3031 3030 3030 3030 3019 3008 3012 3014 3001 2989 2994 2998 2995 2993 2995 2995 2995 2995 2995 2994 2994 2993 2993 2993 2993 2994 2993 2993 2991 2990 2989 2988 2986 2986 2985 2983 2981 2980 2978 2976 2973 2971 2969 2968 2967 2966 2966 2965 2964 2962 2961 2960 2959 2959 2959 2958 2958 2958 2958 2958 2957 2957 2956 2955 2954 2952 2950 2948 2946 2943
3034 3032 3031 3031 3028 3023 3019 3015 3018 3021 3021 3021 3021 3022 3023 3025 3025 3026 3024 3016 3005 3002 3007 3005 2993 2989 2995 2996 2988 2987 2992 2991 2989 2990 2990 2989 2988 2987 2988 2988 2988 2988 2987 2986 2984 2983 2982 2981 2980 2979 2978 2977 2975 2974 2971 2969 2966 2964 2963 2961 2961 2960 2959 2959 2958 2956 2955 2954 2953 2953 2953 2953 2952 2952 2952 2952 2952 2951 2951 2950 2949 2947 2945 2943 2941 2938
3026 3022 3022 3023 3018 3017 3017 3016 3018 3020 3017 3017 3019 3019 3020 3020 3021 3020 3011 2999 3001 3005 2999 2992 2992 2991 2993 2991 2981 2977 2983 2985 2983 2984 2984 2983 2982 2980 2980 2981 2982 2981 2981 2980 2978 2977 2976 2975 2973 2972 2971 2970 2968 2967 2965 2962 2960 2957 2956 2955 2954 2953 2953 2952 2951 2950 2949 2948 2948 2948 2947 2947 2947 2946 2946 2946 2946 2946 2945 2945 2943 2942 2940 2938 2936 2933
3019 3015 3017 3017 3013 3013 3015 3013 3013 3013 3012 3014 3016 3014 3016 3016 3013 3007 2997 2992 3001 3000 2986 2984 2992 2991 2989 2985 2973 2970 2975 2976 2976 2976 2975 2975 2976 2974 2973 2974 2973 2973 2972 2971 2970 2969 2969 2967 2965 2964 2963 2962 2960 2959 2957 2955 2952 2950 2949 2948 2947 2947 2946 2945 2945 2944 2943 2942 2942 2942 2942 2942 2941 2941 2941 2941 2941 2941 2940 2939 2938 2937 2936 2934 2931 2928
3014 3010 3011 3011 3007 3007 3009 3008 3006 3006 3007 3008 3009 3010 3012 3007 3002 2998 2991 2989 2993 2988 2979 2983 2989 2987 2983 2973 2964 2967 2970 2969 2970 2970 2967 2966 2967 2967 2969 2968 2966 2965 2964 2961 2960 2960 2959 2958 2957 2956 2954 2953 2952 2950 2948 2946 2944 2943 2941 2941 2940 2940 2939 2939 2938 2937 2937 2936 2936 2936 2936 2936 2936 2936 2936 2936 2936 2936 2935 2935 2934 2933 2931 2929 2926 2923
3008 3004 3005 3006 3002 3000 3001 3000 2998 3000 3002 3001 3003 3007 3003 2994 2994 2995 2987 2981 2983 2980 2977 2981 2983 2978 2969 2961 2961 2965 2964 2962 2964 2963 2960 2957 2956 2959 2962 2960 2957 2957 2956 2953 2951 2950 2949 2949 2948 2947 2946 2944 2943 2941 2939 2938 2936 2935 2934 2933 2933 2933 2933 2933 2932 2931 2931 2930 2930 2930 2930 2930 2930 2931 2931 2931 2931 2931 2931 2930 2929 2928 2927 2924 2921 2918
3002 2999 3000 3001 2997 2992 2992 2991 2990 2994 2997 2998 3000 2996 2986 2982 2985 2984 2975 2973 2977 2976 2973 2975 2973 2964 2956 2956 2959 2959 2957 2958 2958 2955 2952 2948 2948 2952 2954 2951 2949 2948 2948 2947 2944 2941 2940 2940 2939 2938 2937 2935 2934 2933 2931 2930 2928 2927 2926 2926 2926 2926 2926 2926 2926 2925 2925 2924 2924 2924 2924 2925 2925 2926 2926 2926 2926 2926 2926 2926 2925 2924 2922 2919 2916 2913
2996 2994 2994 2995 2990 2984 2984 2985 2987 2992 2993 2989 2983 2975 2972 2975 2976 2971 2966 2967 2971 2971 2968 2964 2960 2953 2951 2954 2953 2950 2951 2953 2951 2949 2946 2940 2942 2947 2946 2943 2942 2941 2941 2940 2937 2934 2932 2931 2930 2929 2927 2926 2925 2924 2923 2922 2921 2920 2920 2919 2919 2920 2920 2920 2920 2919 2919 2919 2919 2919 2919 2920 2920 2921 2921 2922 2922 2922 2921 2921 2920 2919 2916 2914 2911 2907
2988 2988 2987 2987 2984 2979 2978 2982 2985 2985 2977 2967 2963 2965 2968 2969 2964 2958 2957 2959 2962 2964 2962 2957 2951 2948 2948 2947 2943 2942 2945 2946 2945 2944 2939 2934 2937 2940 2937 2935 2935 2934 2934 2933 2930 2927 2925 2923 2921 2920 2918 2918 2917 2916 2916 2915 2915 2914 2913 2913 2913 2913 2913 2913 2914 2914 2913 2914 2914 2914 2915 2915 2915 2916 2917 2917 2917 2917 2917 2916 2915 2914 2911 2908 2906 2902
2981 2981 2979 2979 2979 2975 2975 2981 2978 2965 2955 2952 2957 2964 2963 2959 2955 2952 2951 2953 2955 2956 2956 2952 2945 2942 2940 2937 2935 2937 2939 2940 2941 2937 2929 2928 2933 2933 2930 2928 2928 2928 2927 2925 2922 2920 2918 2916 2914 2912 2911 2911 2910 2910 2910 2910 2910 2909 2907 2907 2907 2907 2908 2908 2908 2908 2908 2908 2909 2909 2910 2910 2911 2912 2913 2913 2913 2912 2912 2912 2910 2909 2906 2903 2900 2897
2973 2972 2971 2971 2972 2969 2970 2971 2960 2946 2945 2950 2955 2958 2956 2953 2952 2947 2941 2941 2946 2949 2948 2942 2936 2935 2935 2930 2928 2931 2932 2935 2934 2926 2920 2923 2927 2926 2924 2923 2922 2921 2920 2918 2915 2913 2912 2910 2908 2906 2906 2906 2905 2905 2905 2905 2904 2903 2902 2902 2902 2902 2903 2902 2902 2902 2902 2903 2904 2905 2906 2906 2907 2908 2908 2908 2908 2908 2908 2907 2906 2904 2901 2898 2896 2892
2963 2963 2965 2964 2961 2961 2959 2953 2946 2943 2944 2945 2947 2948 2948 2944 2942 2938 2931 2931 2940 2945 2940 2932 2929 2930 2928 2922 2922 2925 2927 2929 2925 2916 2914 2918 2919 2918 2918 2918 2917 2915 2913 2911 2909 2907 2906 2904 2902 2901 2901 2901 2900 2900 2900 2899 2899 2898 2898 2897 2897 2897 2897 2896 2896 2896 2897 2898 2899 2900 2901 2902 2903 2903 2904 2904 2904 2903 2903 2902 2901 2899 2896 2894 2891 2887
2953 2954 2956 2953 2949 2950 2948 2942 2941 2939 2932 2932 2936 2939 2941 2939 2936 2934 2927 2925 2934 2937 2930 2924 2924 2923 2920 2917 2917 2920 2922 2922 2916 2909 2910 2912 2911 2912 2913 2912 2911 2909 2907 2905 2904 2902 2900 2898 2897 2897 2897 2896 2896 2895 2895 2894 2892 2892 2891 2891 2891 2891 2890 2890 2890 2891 2892 2893 2895 2896 2897 2898 2898 2899 2899 2899 2899 2899 2899 2897 2896 2894 2891 2889 2886 2883
2943 2944 2947 2944 2940 2942 2940 2933 2930 2923 2917 2922 2929 2932 2936 2937 2934 2930 2922 2918 2924 2925 2918 2918 2919 2916 2914 2913 2912 2915 2917 2914 2908 2906 2908 2907 2906 2907 2908 2906 2905 2903 2901 2900 2898 2897 2895 2894 2893 2893 2892 2891 2891 2890 2890 2888 2886 2885 2885 2884 2884 2884 2883 2884 2884 2885 2887 2888 2889 2891 2892 2893 2894 2894 2894 2894 2894 2894 2894 2893 2891 2889 2887 2884 2881 2878
2933 2935 2937 2934 2930 2933 2930 2921 2916 2912 2910 2916 2923 2927 2929 2929 2930 2927 2913 2905 2911 2913 2909 2912 2913 2910 2910 2909 2908 2909 2908 2903 2901 2904 2905 2902 2900 2901 2901 2900 2899 2897 2895 2894 2893 2891 2891 2889 2888 2888 2887 2886 2886 2885 2884 2882 2880 2879 2878 2877 2877 2877 2877 2878 2879 2880 2881 2883 2884 2886 2887 2888 2889 2889 2889 2890 2890 2890 2889 2888 2887 2885 2882 2880 2877 2873
2923 2924 2923 2920 2918 2921 2919 2910 2904 2902 2903 2910 2916 2918 2920 2921 2921 2912 2894 2890 2900 2904 2904 2907 2907 2904 2904 2903 2901 2901 2899 2897 2898 2899 2899 2897 2894 2893 2894 2893 2893 2892 2890 2888 2887 2886 2885 2884 2884 2883 2882 2881 2880 2879 2878 2876 2874 2873 2872 2871 2871 2870 2871 2872 2873 2874 2876 2877 2880 2881 2883 2884 2884 2884 2885 2885 2885 2885 2885 2884 2882 2880 2878 2875 2872 2869
2912 2912 2910 2910 2910 2909 2905 2900 2895 2890 2892 2903 2908 2908 2910 2909 2900 2886 2880 2886 2894 2895 2897 2900 2899 2898 2898 2895 2894 2893 2892 2893 2894 2892 2891 2890 2888 2887 2887 2886 2886 2886 2884 2883 2881 2880 2879 2878 2878 2878 2876 2876 2875 2873 2871 2869 2867 2866 2865 2865 2865 2864 2865 2865 2866 2868 2870 2872 2875 2877 2878 2879 2880 2880 2881 2881 2881 2881 2880 2879 2878 2876 2873 2871 2868 2865
2901 2901 2897 2896 2900 2900 2895 2892 2886 2878 2880 2892 2898 2896 2893 2886 2876 2873 2877 2883 2885 2887 2890 2891 2890 2891 2890 2888 2887 2888 2887 2887 2887 2885 2885 2883 2882 2882 2881 2880 2880 2879 2878 2877 2876 2874 2873 2872 2871 2871 2870 2869 2868 2867 2866 2864 2862 2861 2859 2858 2858 2858 2858 2859 2861 2863 2865 2867 2870 2872 2874 2875 2875 2876 2877 2877 2877 2877 2876 2875 2873 2871 2868 2866 2863 2860
2889 2889 2884 2882 2885 2885 2877 2869 2866 2865 2871 2880 2881 2877 2871 2864 2865 2872 2874 2874 2877 2881 2882 2881 2881 2884 2884 2882 2882 2882 2881 2881 2880 2879 2878 2877 2876 2876 2874 2874 2874 2872 2871 2871 2870 2868 2868 2866 2865 2864 2863 2862 2862 2861 2859 2858 2856 2855 2853 2852 2852 2852 2852 2853 2855 2857 2859 2862 2865 2867 2869 2870 2871 2873 2873 2873 2873 2872 2871 2870 2868 2866 2864 2861 2859 2856
2874 2876 2873 2868 2867 2863 2856 2851 2854 2861 2868 2870 2866 2862 2860 2858 2861 2867 2868 2868 2871 2873 2874 2874 2875 2875 2876 2875 2875 2874 2874 2873 2872 2872 2871 2870 2870 2869 2868 2867 2867 2866 2865 2864 2862 2862 2861 2860 2859 2858 2856 2855 2855 2854 2853 2851 2849 2847 2846 2845 2845 2846 2846 2848 2849 2851 2854 2856 2859 2862 2863 2865 2867 2868 2869 2869 2868 2867 2867 2865 2863 2861 2859 2857 2855 2851
2867 2870 2866 2860 2857 2854 2849 2849 2856 2859 2859 2859 2857 2855 2855 2856 2859 2861 2862 2862 2864 2865 2867 2868 2867 2867 2868 2867 2866 2866 2866 2865 2865 2865 2864 2863 2862 2862 2861 2860 2859 2859 2858 2857 2856 2856 2855 2853 2852 2850 2849 2848 2848 2847 2846 2845 2843 2841 2840 2840 2840 2840 2841 2842 2844 2846 2849 2850 2853 2855 2857 2860 2862 2863 2864 2864 2863 2863 2862 2861 2859 2857 2855 2853 2851 2847
2864 2865 2861 2855 2853 2851 2845 2847 2855 2854 2850 2852 2854 2850 2850 2852 2854 2856 2855 2854 2855 2857 2859 2859 2859 2859 2860 2858 2857 2857 2857 2857 2857 2856 2856 2855 2854 2853 2853 2853 2852 2852 2852 2851 2851 2850 2848 2847 2845 2844 2842 2841 2840 2840 2839 2837 2836 2836 2835 2834 2835 2836 2836 2837 2839 2841 2844 2845 2847 2849 2852 2854 2857 2858 2858 2859 2859 2858 2857 2856 2854 2852 2851 2849 2846 2843
2859 2859 2855 2851 2849 2846 2841 2844 2851 2849 2847 2850 2849 2845 2845 2847 2847 2848 2848 2846 2847 2848 2848 2849 2850 2850 2850 2851 2850 2849 2848 2849 2850 2848 2847 2847 2846 2845 2846 2845 2844 2844 2844 2843 2843 2842 2841 2840 2839 2837 2836 2835 2834 2833 2832 2830 2830 2830 2829 2829 2829 2830 2831 2832 2834 2836 2838 2840 2841 2843 2846 2849 2851 2852 2853 2853 2854 2854 2853 2852 2850 2848 2847 2845 2842 2839
2855 2852 2851 2850 2845 2840 2837 2841 2843 2841 2840 2843 2843 2841 2842 2843 2841 2841 2840 2839 2839 2839 2839 2841 2842 2842 2843 2843 2842 2841 2840 2840 2840 2840 2839 2838 2838 2837 2837 2837 2837 2836 2835 2835 2835 2834 2833 2832 2831 2830 2829 2828 2828 2827 2826 2825 2824 2823 2822 2822 2823 2824 2826 2827 2830 2832 2834 2835 2836 2838 2841 2844 2845 2846 2847 2848 2849 2849 2848 2847 2846 2844 2843 2841 2838 2834
2850 2845 2847 2848 2840 2833 2834 2837 2838 2835 2833 2834 2838 2839 2839 2837 2835 2833 2833 2833 2833 2833 2833 2833 2834 2834 2835 2834 2834 2834 2831 2830 2832 2832 2830 2830 2829 2828 2829 2829 2828 2827 2827 2827 2827 2826 2825 2824 2823 2822 2821 2821 2820 2819 2818 2818 2817 2815 2815 2815 2816 2818 2821 2823 2826 2828 2829 2830 2832 2834 2836 2838 2840 2841 2842 2843 2844 2844 2844 2843 2842 2840 2839 2837 2834 2830
2843 2840 2842 2841 2832 2826 2830 2834 2834 2831 2827 2827 2831 2832 2831 2831 2829 2826 2826 2827 2826 2826 2826 2825 2824 2825 2825 2825 2826 2825 2822 2822 2823 2823 2821 2820 2819 2819 2819 2820 2819 2819 2819 2819 2818 2818 2817 2816 2814 2814 2813 2813 2812 2811 2810 2809 2808 2807 2807 2808 2809 2812 2815 2818 2822 2824 2825 2826 2828 2830 2832 2834 2835 2836 2837 2838 2839 2839 2839 2839 2838 2837 2836 2833 2829 2825